Location: Walnut Hills Mobile Home Park
(34.0445°N, 117.8184°W)
Time: 14:33:17
(UTC+00:00)

Daily predictions for brighter satellites

Satellite Brightness Start Highest point End
(mag) Time Altitude Azimuth Time Altitude Azimuth Time Altitude Azimuth
Cosmos 389 Rocket 4.4 12:07:44 21° NNE 12:07:44 21° NNE 12:09:02 10° NNE
USA 32 3.9 12:13:29 37° SSW 12:15:23 60° W 12:20:34 10° N
ADEOS 4.4 12:12:32 10° N 12:16:02 33° NW 12:16:02 33° NW
Cosmos 2181 Rocket 4.2 12:12:44 10° NNW 12:18:43 46° W 12:24:35 10° SSW
Cosmos 489 Rocket 4.4 12:18:12 10° NNW 12:24:28 90° W 12:30:46 10° SSE
SJ-6F 4.3 12:21:16 10° N 12:25:23 67° WNW 12:27:25 28° SSW
H-2A R/B 3.2 12:21:43 10° N 12:24:45 37° NW 12:24:45 37° NW
NOSS 3-2 (A) 4.1 12:20:35 13° NW 12:27:48 63° WSW 12:36:14 10° SSE
Okean 1-7 Rocket 4.2 12:25:34 10° S 12:29:53 57° E 12:34:17 10° NNE
Cosmos 1954 Rocket 3.9 12:24:49 10° SSW 12:30:05 86° WNW 12:35:20 10° NNE
Cosmos 1140 Rocket 3.5 12:31:57 20° SW 12:35:23 53° WNW 12:40:27 10° N
SL-16 R/B 2.2 12:31:47 10° SSW 12:37:25 84° ESE 12:43:07 10° NNE
COSMO-SKYMED 1 4.5 12:34:55 10° SE 12:38:46 32° ENE 12:42:37 10° N
Cosmos 1437 Rocket 3.7 12:35:56 10° S 12:39:35 48° E 12:43:14 10° NNE
PAYLOAD A 4.4 12:42:15 10° N 12:46:44 37° WNW 12:51:21 10° SW
Celestis-02/Orion 38 4.5 12:41:47 10° SSE 12:46:52 70° WSW 12:52:07 10° NNW
NOSS 3-2 (C) 4.1 12:44:12 10° NW 12:52:03 66° WSW 13:00:30 10° SSE
PSLV R/B 3.5 12:48:27 10° N 12:52:09 83° W 12:55:50 10° SSW
Cosmos 2278 Rocket 2.4 12:48:06 10° NNW 12:53:30 47° WSW 12:58:52 10° S
Cosmos 2228 2.9 12:50:23 10° N 12:54:39 86° W 12:58:52 10° S
Meteor PRIRODA 3.6 12:51:08 10° N 12:54:50 62° WNW 12:58:29 10° SSW
CZ-4B R/B 3.2 12:51:20 10° N 12:55:00 39° WNW 12:58:31 10° SW
Milstar 3 Cent rocket 3.1 12:50:36 13° SW 12:55:14 35° S 12:59:28 10° ESE
PSLV R/B 3.3 12:55:10 34° NW 12:55:44 40° NNW 12:58:15 10° NE
Cosmos 1726 Rocket 3.4 12:51:36 10° N 12:55:56 89° WSW 13:00:14 10° S
Cosmos 962 Rocket 4.5 12:52:15 10° S 12:58:30 86° W 13:04:53 10° N
USA 234 3.2 12:52:04 10° SE 12:58:35 74° SW 13:05:08 10° NW
Cosmos 1953 2.5 12:55:24 10° NNW 12:59:15 46° W 13:03:03 10° SSW
Cosmos 921 Rocket 4.2 13:02:51 19° W 13:03:20 19° W 13:06:19 10° SW
IDEFIX/ARIANE 42P 4.3 13:01:01 10° NW 13:03:02 13° WNW 13:03:02 13° WNW
CZ-3C R/B 3.7 13:02:45 10° S 13:04:59 12° SSE 13:08:37 10° SE
Cosmos 2154 Rocket 4.2 12:59:09 10° SSW 13:05:02 46° W 13:10:59 10° N
Cosmos 1741 Rocket 4.2 13:04:05 10° SSW 13:09:23 82° ESE 13:14:44 10° NNE
Okean O Rocket 2.1 13:06:14 10° NNE 13:10:36 64° ESE 13:14:55 10° S
Meteor 2-5 Rocket 3.8 13:06:43 10° S 13:12:28 89° W 13:18:23 10° N
ALOS 2.7 13:08:12 10° NNE 13:12:52 69° ESE 13:17:29 10° S
Cosmos 1707 4.4 13:14:34 14° W 13:15:16 14° WNW 13:17:28 10° NW
Cosmos 2058 Rocket 3.0 13:11:35 10° N 13:16:02 82° W 13:20:28 10° S
Meteor 1-31 Rocket 4.1 13:13:33 10° NNW 13:16:20 20° WNW 13:19:07 10° WSW
Meteor 2-17 Rocket 4.4 13:10:18 10° S 13:16:22 78° W 13:22:26 10° N
SeaSat 1 4.0 13:12:36 10° NE 13:17:13 39° ESE 13:21:48 10° S
Helios 1A Rocket 2.9 13:17:30 10° N 13:21:40 77° WNW 13:25:47 10° SSW
RESURS DK-1 3.6 13:21:24 10° WSW 13:24:39 22° WNW 13:27:55 10° N
ATLAS 3B R/B 2.8 13:18:09 10° NW 13:24:44 57° WSW 13:31:31 10° SSE
Meteor 1-4 Rocket 4.3 13:23:35 10° WSW 13:25:11 13° WNW 13:26:47 10° NW
SKYMED 2 3.5 13:22:22 10° S 13:26:40 66° WSW 13:31:00 10° NNW
Cosmos 44 4.0 13:24:14 10° NW 13:27:51 26° WSW 13:31:27 10° SSW
Cosmos 1726 2.2 13:24:39 10° NNW 13:28:14 53° W 13:31:49 10° S
COBE Rocket 4.0 13:23:22 10° S 13:28:16 60° W 13:33:19 10° NNW
Cosmos 2237 Rocket 3.9 13:26:15 10° W 13:28:42 13° NW 13:31:10 10° NNW
Iridium 51 4.2 13:25:04 10° N 13:28:46 80° E 13:32:14 10° S
NOAA 6 4.1 13:24:36 10° NNE 13:29:47 90° N 13:34:56 10° SSW
CZ-2C R/B 3.9 13:26:22 10° NNW 13:29:49 18° WNW 13:33:13 10° WSW
Nadezhda 3 Rocket 4.5 13:24:27 10° NNW 13:30:18 40° W 13:36:05 10° SSW
Cosmos 2341 Rocket 4.2 13:24:58 10° SSW 13:31:00 50° W 13:37:02 10° N
Cosmos 1484 Rocket 3.6 13:29:33 10° NNW 13:32:54 30° WNW 13:36:17 10° SW
CENTAUR R/B 3.5 13:28:14 10° NW 13:36:11 48° WSW 13:44:24 10° S
Milstar 3 3.5 13:30:00 10° WSW 13:36:29 50° S 13:43:54 10° E
Meteor 2-10 4.3 13:31:40 10° NNW 13:36:44 50° W 13:41:57 10° SSW
Cosmos 44 Rocket 3.7 13:32:15 10° NNW 13:36:56 65° ENE 13:41:34 10° SE
